McConnell AFB, KS

3:39 AM CDT on May 24, 2017 (GMT -0500)
McConnell Air Force Base

Weather History for KIAB - May, 2014

Change the Weather History Date:

Friday, May 16, 2014

  Actual Average Record
Temperature  
Mean Temperature 54 °F -  
Max Temperature 65 °F 74 °F 91 °F (2001)
Min Temperature 44 °F 55 °F 44 °F (2011)
Degree Days  
Heating Degree Days 11    
Growing Degree Days 4 (Base 50)    
Moisture  
Dew Point 39 °F    
Average Humidity 60    
Maximum Humidity 99    
Minimum Humidity 34    
Precipitation  
Precipitation 0.00 in - - ()
Sea Level Pressure  
Sea Level Pressure 30.08 in    
Wind  
Wind Speed 8 mph (East)    
Max Wind Speed 16 mph    
Max Gust Speed 23 mph    
Visibility 10 miles    
Events Rain    
Averages and records for this station are not official NWS values.
T = Trace of Precipitation, MM = Missing Value Source: NWS Daily Summary

Daily Weather History Graph

Daily Weather History Graph

Search for Another Location

Airport or City:

Trip Planner

Search our weather history database for the weather conditions in past years. The results will help you decide how hot, cold, wet, or windy it might be!

Date:

Astronomy

May. 16, 2014 Rise Set
Actual Time 6:18 AM CDT 8:32 PM CDT
Civil Twilight 5:49 AM CDT 9:02 PM CDT
Nautical Twilight 5:13 AM CDT 9:38 PM CDT
Astronomical Twilight 4:34 AM CDT 10:17 PM CDT
Moon 10:40 PM CDT (5/16) 8:01 AM CDT (5/16)
Length of Visible Light 15h 12m
Length of Day
14h 13m
Waning Gibbous, 95% of the Moon is Illuminated
May 16
Waning Gibbous
May 21
Last Quarter
May 28
New
Jun 5
First Quarter
Jun 12
Full

Hourly Weather History & Observations

Time (CDT) Temp. Windchill Dew Point Humidity Pressure Visibility Wind Dir Wind Speed Gust Speed Precip Events Conditions
12:58 AM 48.0 °F - 34.7 °F 60% 30.15 in 10.0 mi ENE 3.5 mph - N/A   Clear
1:58 AM 51.4 °F - 29.7 °F 43% 30.14 in 10.0 mi East 4.6 mph - N/A   Clear
2:58 AM 46.9 °F - 32.9 °F 58% 30.14 in 10.0 mi ENE 4.6 mph - N/A   Clear
3:58 AM 44.6 °F 43.1 °F 34.2 °F 67% 30.14 in 10.0 mi ENE 3.5 mph - N/A   Clear
4:58 AM 45.5 °F 43.2 °F 34.9 °F 66% 30.13 in 10.0 mi ENE 4.6 mph - N/A   Clear
5:58 AM 44.4 °F 40.5 °F 34.0 °F 67% 30.12 in 10.0 mi ENE 6.9 mph - N/A   Clear
6:58 AM 44.8 °F 40.4 °F 31.5 °F 60% 30.12 in 10.0 mi East 8.1 mph - N/A   Clear
7:58 AM 45.3 °F 41.1 °F 32.2 °F 60% 30.12 in 10.0 mi East 8.1 mph - N/A   Clear
8:58 AM 49.1 °F - 32.7 °F 53% 30.13 in 10.0 mi East 11.5 mph - N/A   Clear
9:58 AM 53.4 °F - 35.1 °F 50% 30.13 in 10.0 mi East 8.1 mph - N/A   Mostly Cloudy
10:58 AM 55.0 °F - 35.8 °F 48% 30.11 in 10.0 mi SE 5.8 mph - N/A   Clear
11:58 AM 54.3 °F - 40.3 °F 59% 30.11 in 10.0 mi ESE 5.8 mph - 0.00 in   Clear
12:58 PM 59.2 °F - 38.8 °F 47% 30.08 in 10.0 mi SE 9.2 mph - N/A   Scattered Clouds
1:58 PM 63.7 °F - 37.2 °F 38% 30.03 in 10.0 mi ESE 9.2 mph - N/A   Partly Cloudy
2:58 PM 64.0 °F - 36.3 °F 36% 30.03 in 10.0 mi East 10.4 mph - N/A   Partly Cloudy
3:58 PM 64.9 °F - 36.1 °F 34% 30.01 in 10.0 mi East 16.1 mph - N/A   Partly Cloudy
4:58 PM 63.9 °F - 36.0 °F 36% 30.01 in 10.0 mi ESE 10.4 mph - N/A   Clear
5:51 PM 60.8 °F - 41.0 °F 48% 30.01 in 10.0 mi East 11.5 mph - N/A Rain Light Rain
5:58 PM 60.3 °F - 41.7 °F 50% 30.02 in 10.0 mi East 10.4 mph - 0.00 in Rain Light Rain
6:03 PM 59.0 °F - 42.8 °F 55% 30.02 in 10.0 mi East 12.7 mph - N/A Rain Light Rain
6:08 PM 57.2 °F - 42.8 °F 59% 30.03 in 10.0 mi ENE 10.4 mph - N/A Rain Light Rain
6:25 PM 57.2 °F - 44.6 °F 63% 30.04 in 10.0 mi East 11.5 mph - N/A Rain Light Rain
6:30 PM 57.2 °F - 42.8 °F 59% 30.05 in 10.0 mi East 11.5 mph - N/A Rain Light Rain
6:32 PM 57.2 °F - 42.8 °F 59% 30.05 in 10.0 mi East 10.4 mph - N/A   Scattered Clouds
6:35 PM 57.2 °F - 41.0 °F 55% 30.05 in 9.0 mi East 13.8 mph - N/A Rain Light Rain
6:45 PM 55.4 °F - 41.0 °F 58% 30.06 in 10.0 mi East 10.4 mph - N/A Rain Light Rain
6:58 PM 54.0 °F - 42.3 °F 65% 30.07 in 9.0 mi ENE 11.5 mph - 0.00 in Rain Light Rain
7:10 PM 51.8 °F - 42.8 °F 71% 30.05 in 6.0 mi NW 16.1 mph 23.0 mph N/A Rain Light Rain
7:38 PM 50.0 °F - 44.6 °F 82% 30.05 in 10.0 mi East 15.0 mph - N/A   Mostly Cloudy
7:58 PM 51.1 °F - 44.2 °F 77% 30.07 in 10.0 mi East 11.5 mph - 0.00 in   Partly Cloudy
8:58 PM 49.8 °F - 44.1 °F 81% 30.09 in 10.0 mi East 11.5 mph 20.7 mph N/A   Partly Cloudy
9:58 PM 49.5 °F - 43.3 °F 79% 30.10 in 10.0 mi East 11.5 mph - N/A   Clear
10:58 PM 47.7 °F - 46.6 °F 96% 30.13 in 10.0 mi ENE 10.4 mph - N/A   Partly Cloudy
11:58 PM 46.0 °F 40.6 °F 45.7 °F 99% 30.14 in 10.0 mi East 11.5 mph - N/A   Partly Cloudy